| time (UTC) | temp F | wind direction | speed knots | gust knots | rain 1hr in | rain 24hr in | rain mn in | humidity % | barometer mb |
| 20260504150949 | 66 | 272 | 0.9 | 4.3 | 0.00 | 0.00 | 0.00 | 40 | 1012.4 |
| 20260504150451 | 65 | 168 | 1.7 | 5.2 | 0.00 | 0.00 | 0.00 | 40 | 1012.3 |
| 20260504140949 | 63 | 108 | 1.7 | 3.5 | 0.00 | 0.00 | 0.00 | 43 | 1012.7 |
| 20260504140450 | 63 | 31 | 0.9 | 2.6 | 0.00 | 0.00 | 0.00 | 43 | 1012.7 |
| 20260504130450 | 57 | 0 | 0.0 | 0.0 | 0.00 | 0.00 | 0.00 | 49 | 1013.3 |
| 20260504110449 | 45 | 288 | 0.9 | 2.6 | 0.00 | 0.00 | 0.00 | 67 | 1013.5 |
| 20260504100449 | 42 | 0 | 0.0 | 0.0 | 0.00 | 0.00 | 0.00 | 78 | 1013.2 |
| 20260504081949 | 45 | 55 | 0.0 | 1.7 | 0.00 | 0.00 | 0.00 | 68 | 1012.7 |
| 20260504081450 | 45 | 0 | 0.0 | 0.0 | 0.00 | 0.00 | 0.00 | 69 | 1012.6 |
| 20260504080950 | 45 | 114 | 0.0 | 0.9 | 0.00 | 0.00 | 0.00 | 69 | 1012.6 |
| 20260504080450 | 45 | 12 | 0.0 | 0.9 | 0.00 | 0.00 | 0.00 | 67 | 1012.5 |
| 20260504050449 | 40 | 0 | 0.0 | 0.0 | 0.00 | 0.00 | 0.00 | 83 | 1012.1 |
| 20260504045950 | 40 | 0 | 0.0 | 0.0 | 0.00 | 0.00 | 0.00 | 83 | 1012.1 |
| 20260504045449 | 40 | 0 | 0.0 | 0.0 | 0.00 | 0.00 | 0.00 | 83 | 1012.0 |
| 20260504044949 | 40 | 0 | 0.0 | 0.0 | 0.00 | 0.00 | 0.00 | 82 | 1012.0 |
| 20260504044449 | 40 | 0 | 0.0 | 0.0 | 0.00 | 0.00 | 0.00 | 81 | 1012.0 |
| 20260504043950 | 40 | 0 | 0.0 | 0.0 | 0.00 | 0.00 | 0.00 | 81 | 1012.0 |
| 20260504043449 | 40 | 0 | 0.0 | 0.0 | 0.00 | 0.00 | 0.00 | 80 | 1012.0 |
| 20260504042950 | 40 | 0 | 0.0 | 0.0 | 0.00 | 0.00 | 0.00 | 80 | 1012.0 |
| 20260504042451 | 41 | 0 | 0.0 | 0.0 | 0.00 | 0.00 | 0.00 | 80 | 1012.0 |
| 20260504041949 | 41 | 0 | 0.0 | 0.0 | 0.00 | 0.00 | 0.00 | 79 | 1011.9 |
| 20260504041449 | 41 | 0 | 0.0 | 0.0 | 0.00 | 0.00 | 0.00 | 78 | 1011.9 |
| 20260504040949 | 41 | 0 | 0.0 | 0.0 | 0.00 | 0.00 | 0.00 | 77 | 1011.9 |
| 20260504040450 | 41 | 0 | 0.0 | 0.0 | 0.00 | 0.00 | 0.00 | 77 | 1011.9 |
| 20260504035949 | 41 | 0 | 0.0 | 0.0 | 0.00 | 0.00 | 0.00 | 76 | 1011.8 |
| 20260504035450 | 41 | 0 | 0.0 | 0.0 | 0.00 | 0.00 | 0.00 | 76 | 1011.9 |
| 20260504034949 | 42 | 0 | 0.0 | 0.0 | 0.00 | 0.00 | 0.00 | 76 | 1011.9 |
| 20260504034449 | 42 | 0 | 0.0 | 0.0 | 0.00 | 0.00 | 0.00 | 76 | 1011.8 |
| 20260504033951 | 42 | 0 | 0.0 | 0.0 | 0.00 | 0.00 | 0.00 | 76 | 1011.9 |
| 20260504033449 | 42 | 0 | 0.0 | 0.0 | 0.00 | 0.00 | 0.00 | 76 | 1011.9 |
| 20260504032949 | 42 | 0 | 0.0 | 0.0 | 0.00 | 0.00 | 0.00 | 75 | 1011.9 |
| 20260504032449 | 42 | 0 | 0.0 | 0.0 | 0.00 | 0.00 | 0.00 | 74 | 1011.9 |
| 20260504031949 | 42 | 0 | 0.0 | 0.0 | 0.00 | 0.00 | 0.00 | 73 | 1011.9 |
| 20260504031449 | 43 | 0 | 0.0 | 0.0 | 0.00 | 0.00 | 0.00 | 72 | 1011.9 |
| 20260504030949 | 43 | 0 | 0.0 | 0.0 | 0.00 | 0.00 | 0.00 | 72 | 1011.8 |
| 20260504030449 | 43 | 0 | 0.0 | 0.0 | 0.00 | 0.00 | 0.00 | 71 | 1011.8 |
| 20260504025950 | 43 | 0 | 0.0 | 0.0 | 0.00 | 0.00 | 0.00 | 71 | 1011.8 |
| 20260504025449 | 43 | 0 | 0.0 | 0.0 | 0.00 | 0.00 | 0.00 | 71 | 1011.8 |
| 20260504024949 | 43 | 0 | 0.0 | 0.0 | 0.00 | 0.00 | 0.00 | 71 | 1011.8 |
| 20260504024451 | 43 | 0 | 0.0 | 0.0 | 0.00 | 0.00 | 0.00 | 71 | 1011.9 |
| 20260504023951 | 43 | 0 | 0.0 | 0.0 | 0.00 | 0.00 | 0.00 | 71 | 1011.9 |
| 20260504023450 | 43 | 0 | 0.0 | 0.0 | 0.00 | 0.00 | 0.00 | 71 | 1011.9 |
| 20260504022949 | 44 | 0 | 0.0 | 0.0 | 0.00 | 0.00 | 0.00 | 71 | 1011.9 |
| 20260504022449 | 44 | 0 | 0.0 | 0.0 | 0.00 | 0.00 | 0.00 | 69 | 1011.9 |
| 20260504021949 | 44 | 0 | 0.0 | 0.0 | 0.00 | 0.00 | 0.00 | 68 | 1011.8 |
| 20260504021449 | 44 | 0 | 0.0 | 0.0 | 0.00 | 0.00 | 0.00 | 67 | 1011.8 |
| 20260504020949 | 45 | 0 | 0.0 | 0.0 | 0.00 | 0.00 | 0.00 | 66 | 1011.8 |
| 20260504020449 | 45 | 0 | 0.0 | 0.0 | 0.00 | 0.00 | 0.00 | 66 | 1011.8 |
| 20260504015950 | 45 | 0 | 0.0 | 0.0 | 0.00 | 0.00 | 0.00 | 66 | 1011.8 |
| 20260504015449 | 46 | 0 | 0.0 | 0.0 | 0.00 | 0.00 | 0.00 | 64 | 1011.8 |
| 20260504014949 | 46 | 0 | 0.0 | 0.0 | 0.00 | 0.00 | 0.00 | 64 | 1011.8 |
| 20260504014449 | 46 | 0 | 0.0 | 0.0 | 0.00 | 0.00 | 0.00 | 62 | 1011.8 |
| 20260504013949 | 46 | 0 | 0.0 | 0.0 | 0.00 | 0.00 | 0.00 | 61 | 1011.7 |
| 20260504013449 | 47 | 0 | 0.0 | 0.0 | 0.00 | 0.00 | 0.00 | 60 | 1011.7 |
| 20260504012949 | 47 | 0 | 0.0 | 0.0 | 0.00 | 0.00 | 0.00 | 60 | 1011.6 |
| 20260504012449 | 47 | 0 | 0.0 | 0.0 | 0.00 | 0.00 | 0.00 | 59 | 1011.6 |
| 20260504011949 | 48 | 0 | 0.0 | 0.0 | 0.00 | 0.00 | 0.00 | 57 | 1011.6 |
| 20260504011450 | 48 | 0 | 0.0 | 0.0 | 0.00 | 0.00 | 0.00 | 56 | 1011.5 |
| 20260504010949 | 49 | 0 | 0.0 | 0.0 | 0.00 | 0.00 | 0.00 | 54 | 1011.4 |
| 20260504010449 | 49 | 0 | 0.0 | 0.0 | 0.00 | 0.00 | 0.00 | 54 | 1011.3 |
| 20260504005949 | 50 | 0 | 0.0 | 0.0 | 0.00 | 0.00 | 0.00 | 53 | 1011.3 |
| 20260504005449 | 50 | 0 | 0.0 | 0.0 | 0.00 | 0.00 | 0.00 | 53 | 1011.2 |
| 20260504004949 | 51 | 0 | 0.0 | 0.0 | 0.00 | 0.00 | 0.00 | 50 | 1011.0 |
| 20260504004449 | 51 | 0 | 0.0 | 0.0 | 0.00 | 0.00 | 0.00 | 49 | 1010.9 |
| 20260504003949 | 52 | 0 | 0.0 | 0.0 | 0.00 | 0.00 | 0.00 | 48 | 1010.8 |
| 20260504003449 | 53 | 0 | 0.0 | 0.0 | 0.00 | 0.00 | 0.00 | 46 | 1010.8 |
| 20260504002949 | 53 | 0 | 0.0 | 0.0 | 0.00 | 0.00 | 0.00 | 45 | 1010.7 |
| 20260504002450 | 54 | 0 | 0.0 | 0.0 | 0.00 | 0.00 | 0.00 | 43 | 1010.6 |
| 20260504001949 | 54 | 0 | 0.0 | 0.0 | 0.00 | 0.00 | 0.00 | 43 | 1010.6 |
| 20260504001449 | 55 | 103 | 0.0 | 0.9 | 0.00 | 0.00 | 0.00 | 42 | 1010.5 |
| 20260504000949 | 55 | 112 | 0.0 | 0.9 | 0.00 | 0.00 | 0.00 | 41 | 1010.5 |
| 20260504000452 | 55 | 0 | 0.0 | 0.0 | 0.00 | 0.00 | 0.00 | 40 | 1010.4 |
| 20260503235950 | 56 | 106 | 0.0 | 0.9 | 0.00 | 0.00 | 0.00 | 39 | 1010.3 |
| 20260503235450 | 56 | 74 | 0.9 | 1.7 | 0.00 | 0.00 | 0.00 | 38 | 1010.2 |
| 20260503234950 | 56 | 73 | 0.0 | 0.9 | 0.00 | 0.00 | 0.00 | 39 | 1010.2 |
| 20260503234449 | 56 | 14 | 0.0 | 0.9 | 0.00 | 0.00 | 0.00 | 38 | 1010.1 |
| 20260503233950 | 56 | 0 | 0.0 | 0.0 | 0.00 | 0.00 | 0.00 | 39 | 1010.0 |
| 20260503233449 | 56 | 112 | 0.0 | 2.6 | 0.00 | 0.00 | 0.00 | 39 | 1009.9 |
| 20260503232949 | 57 | 92 | 0.9 | 1.7 | 0.00 | 0.00 | 0.00 | 37 | 1009.9 |
| 20260503232449 | 57 | 111 | 0.0 | 0.9 | 0.00 | 0.00 | 0.00 | 36 | 1009.8 |
| 20260503231951 | 57 | 38 | 0.9 | 2.6 | 0.00 | 0.00 | 0.00 | 36 | 1009.8 |
| 20260503231449 | 57 | 48 | 0.9 | 2.6 | 0.00 | 0.00 | 0.00 | 36 | 1009.7 |
| 20260503230950 | 57 | 103 | 0.0 | 0.9 | 0.00 | 0.00 | 0.00 | 35 | 1009.7 |
| 20260503230450 | 57 | 86 | 0.9 | 1.7 | 0.00 | 0.00 | 0.00 | 35 | 1009.7 |
| 20260503225950 | 57 | 27 | 1.7 | 3.5 | 0.00 | 0.00 | 0.00 | 34 | 1009.6 |
| 20260503225449 | 57 | 56 | 0.9 | 2.6 | 0.00 | 0.00 | 0.00 | 35 | 1009.5 |
| 20260503224949 | 57 | 78 | 0.0 | 1.7 | 0.00 | 0.00 | 0.00 | 34 | 1009.5 |
| 20260503224449 | 58 | 17 | 0.0 | 0.9 | 0.00 | 0.00 | 0.00 | 35 | 1009.5 |
| 20260503223949 | 58 | 63 | 0.9 | 2.6 | 0.00 | 0.00 | 0.00 | 33 | 1009.5 |
| 20260503223449 | 58 | 97 | 1.7 | 2.6 | 0.00 | 0.00 | 0.00 | 33 | 1009.5 |
| 20260503222950 | 58 | 22 | 1.7 | 2.6 | 0.00 | 0.00 | 0.00 | 34 | 1009.5 |
| 20260503222450 | 58 | 17 | 1.7 | 3.5 | 0.00 | 0.00 | 0.00 | 33 | 1009.3 |
| 20260503221949 | 58 | 139 | 1.7 | 3.5 | 0.00 | 0.00 | 0.00 | 33 | 1009.3 |
| 20260503221449 | 58 | 47 | 1.7 | 3.5 | 0.00 | 0.00 | 0.00 | 33 | 1009.4 |
| 20260503220949 | 58 | 74 | 1.7 | 3.5 | 0.00 | 0.00 | 0.00 | 33 | 1009.4 |
| 20260503220449 | 59 | 227 | 0.0 | 1.7 | 0.00 | 0.00 | 0.00 | 33 | 1009.5 |
| 20260503215950 | 59 | 37 | 1.7 | 2.6 | 0.00 | 0.00 | 0.00 | 33 | 1009.5 |
| 20260503215449 | 60 | 6 | 1.7 | 4.3 | 0.00 | 0.00 | 0.00 | 32 | 1009.4 |
| 20260503214950 | 60 | 65 | 1.7 | 3.5 | 0.00 | 0.00 | 0.00 | 32 | 1009.4 |
| 20260503214450 | 60 | 39 | 1.7 | 2.6 | 0.00 | 0.00 | 0.00 | 33 | 1009.2 |
| 20260503213949 | 60 | 59 | 1.7 | 3.5 | 0.00 | 0.00 | 0.00 | 33 | 1009.3 |
| 20260503213449 | 60 | 8 | 0.9 | 2.6 | 0.00 | 0.00 | 0.00 | 34 | 1009.3 |
| 20260503212950 | 60 | 311 | 1.7 | 4.3 | 0.00 | 0.00 | 0.00 | 33 | 1009.3 |
| 20260503212450 | 60 | 20 | 1.7 | 5.2 | 0.00 | 0.00 | 0.00 | 34 | 1009.4 |
| 20260503211949 | 60 | 58 | 1.7 | 2.6 | 0.00 | 0.00 | 0.00 | 34 | 1009.3 |
| 20260503211449 | 60 | 68 | 0.9 | 2.6 | 0.00 | 0.00 | 0.00 | 34 | 1009.3 |
| 20260503210949 | 60 | 15 | 0.9 | 2.6 | 0.00 | 0.00 | 0.00 | 36 | 1009.3 |
| 20260503210449 | 60 | 271 | 0.9 | 3.5 | 0.00 | 0.00 | 0.00 | 35 | 1009.3 |
| 20260503205949 | 60 | 37 | 1.7 | 3.5 | 0.00 | 0.00 | 0.00 | 34 | 1009.3 |
| 20260503205449 | 60 | 24 | 0.9 | 1.7 | 0.00 | 0.00 | 0.00 | 36 | 1009.3 |
| 20260503204949 | 59 | 58 | 2.6 | 7.0 | 0.00 | 0.00 | 0.00 | 34 | 1009.2 |
| 20260503204449 | 59 | 13 | 1.7 | 3.5 | 0.00 | 0.00 | 0.00 | 34 | 1009.2 |
| 20260503203949 | 60 | 43 | 1.7 | 6.1 | 0.00 | 0.00 | 0.00 | 35 | 1009.3 |
| 20260503203449 | 59 | 354 | 0.9 | 1.7 | 0.00 | 0.00 | 0.00 | 35 | 1009.4 |
| 20260503202949 | 58 | 77 | 0.9 | 2.6 | 0.00 | 0.00 | 0.00 | 35 | 1009.3 |
| 20260503202449 | 57 | 19 | 2.6 | 4.3 | 0.00 | 0.00 | 0.00 | 36 | 1009.3 |
| 20260503201950 | 56 | 20 | 0.9 | 2.6 | 0.00 | 0.00 | 0.00 | 38 | 1009.4 |
| 20260503201450 | 57 | 353 | 1.7 | 3.5 | 0.00 | 0.00 | 0.00 | 38 | 1009.3 |
| 20260503200949 | 58 | 63 | 1.7 | 3.5 | 0.00 | 0.00 | 0.00 | 37 | 1009.3 |
| 20260503200449 | 58 | 328 | 0.9 | 2.6 | 0.00 | 0.00 | 0.00 | 39 | 1009.4 |
| 20260503195950 | 59 | 14 | 1.7 | 3.5 | 0.00 | 0.00 | 0.00 | 39 | 1009.5 |
| 20260503195449 | 59 | 20 | 2.6 | 3.5 | 0.00 | 0.00 | 0.00 | 38 | 1009.6 |
| 20260503194949 | 59 | 12 | 1.7 | 3.5 | 0.00 | 0.00 | 0.00 | 37 | 1009.5 |
| 20260503194449 | 58 | 47 | 1.7 | 3.5 | 0.00 | 0.00 | 0.00 | 37 | 1009.5 |
| 20260503193950 | 57 | 85 | 1.7 | 3.5 | 0.00 | 0.00 | 0.00 | 38 | 1009.5 |
| 20260503193449 | 57 | 25 | 2.6 | 4.3 | 0.00 | 0.00 | 0.00 | 39 | 1009.7 |
| 20260503192949 | 57 | 58 | 1.7 | 4.3 | 0.00 | 0.00 | 0.00 | 39 | 1009.6 |
| 20260503192449 | 58 | 39 | 2.6 | 5.2 | 0.00 | 0.00 | 0.00 | 37 | 1009.7 |
| 20260503191949 | 58 | 97 | 2.6 | 6.1 | 0.00 | 0.00 | 0.00 | 38 | 1009.7 |
| 20260503191450 | 58 | 24 | 4.3 | 6.1 | 0.00 | 0.00 | 0.00 | 39 | 1009.7 |
| 20260503190951 | 57 | 83 | 1.7 | 2.6 | 0.00 | 0.00 | 0.00 | 39 | 1009.8 |
| 20260503190449 | 57 | 82 | 1.7 | 3.5 | 0.00 | 0.00 | 0.00 | 39 | 1009.8 |
| 20260503185949 | 57 | 33 | 2.6 | 5.2 | 0.00 | 0.00 | 0.00 | 39 | 1009.9 |
| 20260503185449 | 56 | 43 | 1.7 | 3.5 | 0.00 | 0.00 | 0.00 | 40 | 1010.0 |
| 20260503184950 | 55 | 48 | 1.7 | 4.3 | 0.00 | 0.00 | 0.00 | 40 | 1009.9 |
| 20260503184449 | 54 | 4 | 1.7 | 3.5 | 0.00 | 0.00 | 0.00 | 42 | 1010.0 |
| 20260503183949 | 54 | 36 | 1.7 | 2.6 | 0.00 | 0.00 | 0.00 | 43 | 1010.1 |
| 20260503183449 | 55 | 347 | 2.6 | 4.3 | 0.00 | 0.00 | 0.00 | 41 | 1010.1 |
| 20260503182950 | 56 | 76 | 2.6 | 4.3 | 0.00 | 0.00 | 0.00 | 40 | 1010.1 |
| 20260503182449 | 56 | 14 | 2.6 | 6.1 | 0.00 | 0.00 | 0.00 | 43 | 1010.2 |
| 20260503181949 | 56 | 33 | 1.7 | 5.2 | 0.00 | 0.00 | 0.00 | 41 | 1010.0 |
| 20260503181450 | 57 | 25 | 1.7 | 5.2 | 0.00 | 0.00 | 0.00 | 40 | 1010.0 |
| 20260503180949 | 56 | 21 | 2.6 | 4.3 | 0.00 | 0.00 | 0.00 | 41 | 1010.0 |
| 20260503180450 | 56 | 32 | 0.9 | 2.6 | 0.00 | 0.00 | 0.00 | 41 | 1010.0 |
| 20260503175949 | 55 | 63 | 1.7 | 3.5 | 0.00 | 0.00 | 0.00 | 40 | 1009.9 |
| 20260503175449 | 56 | 15 | 1.7 | 4.3 | 0.00 | 0.00 | 0.00 | 39 | 1009.9 |
| 20260503174950 | 56 | 20 | 2.6 | 7.0 | 0.00 | 0.00 | 0.00 | 40 | 1010.0 |
| 20260503174449 | 57 | 33 | 1.7 | 3.5 | 0.00 | 0.00 | 0.00 | 39 | 1009.9 |
| 20260503173949 | 56 | 33 | 2.6 | 5.2 | 0.00 | 0.00 | 0.00 | 39 | 1010.0 |
| 20260503173450 | 56 | 21 | 1.7 | 5.2 | 0.00 | 0.00 | 0.00 | 38 | 1009.9 |
| 20260503172951 | 55 | 85 | 1.7 | 3.5 | 0.00 | 0.00 | 0.00 | 38 | 1009.8 |
| 20260503172449 | 55 | 40 | 2.6 | 3.5 | 0.00 | 0.00 | 0.00 | 39 | 1010.0 |
| 20260503171949 | 55 | 7 | 2.6 | 5.2 | 0.00 | 0.00 | 0.00 | 37 | 1009.9 |
| 20260503171450 | 54 | 0 | 2.6 | 4.3 | 0.00 | 0.00 | 0.00 | 39 | 1009.9 |
| 20260503170950 | 55 | 25 | 2.6 | 7.0 | 0.00 | 0.00 | 0.00 | 40 | 1010.1 |
| 20260503170449 | 55 | 11 | 2.6 | 5.2 | 0.00 | 0.00 | 0.00 | 38 | 1010.1 |